sat.trackr.live / text

‹ back to catalog

ONEWEB-0158

NORAD 48054 · 2021-025N

PAYLOAD ACTIVE UNKNOWN

§ Identity

Operator
Country
UK
Launch date
2021-03-25
Launch site
VOSTO
Launch vehicle
Mass (kg)
RCS (m²)

Purposes: comms

External: N2YO · Heavens-Above · Gunter

§ Orbital elements

Epoch: 2026-05-25T04:46:20.438688Z

Period
109.63 min
Inclination
87.8949°
Eccentricity
0.0001783
Mean motion
13.13467387 rev/d
Perigee alt
1,208.4 km
Apogee alt
1,211.1 km
Semi-major
7,587.9 km
B*
-9.6241e-5
RAAN
324.7959°
Arg perigee
80.7009°
Mean anomaly
279.4322°
Rev number
25,061

§ Raw data

ONEWEB-01581 48054U 21025N   26145.19884767 -.00000022  00000+0 -96241-4 0  99902 48054  87.8949 324.7959 0001783  80.7009 279.4322 13.13467387250616

JSON: /api/v1/satellites/48054 · /tle

For live sub-satellite position, see the globe view (requires WebGL).

§ Visibility from observer

Set your observer location to see the next 7 days of passes ≥ 10°. The values pass through the URL so the page stays shareable.

No JS? Fill the form by hand. The geolocation button needs JavaScript.